Great Bend, KS

12:51 AM CST on February 20, 2017 (GMT -0600)
Great Bend Municipal

Weather History for KGBD - January, 2014

Change the Weather History Date:

Monday, January 13, 2014

  Actual Average Record
Temperature  
Mean Temperature 40 °F -  
Max Temperature 53 °F 42 °F 53 °F (2016)
Min Temperature 28 °F 17 °F 14 °F (2015)
Degree Days  
Heating Degree Days 24    
Moisture  
Dew Point 21 °F    
Average Humidity 49    
Maximum Humidity 69    
Minimum Humidity 26    
Precipitation  
Precipitation 0.00 in - - ()
Sea Level Pressure  
Sea Level Pressure 29.89 in    
Wind  
Wind Speed 13 mph (West)    
Max Wind Speed 21 mph    
Max Gust Speed 28 mph    
Visibility 10 miles    
Events      
Averages and records for this station are not official NWS values.
T = Trace of Precipitation, MM = Missing Value Source: NWS Daily Summary

Daily Weather History Graph

Daily Weather History Graph

Search for Another Location

Airport or City:

Trip Planner

Search our weather history database for the weather conditions in past years. The results will help you decide how hot, cold, wet, or windy it might be!

Date:

Astronomy

Jan. 13, 2014 Rise Set
Actual Time 7:51 AM CST 5:37 PM CST
Civil Twilight 7:22 AM CST 6:06 PM CST
Nautical Twilight 6:50 AM CST 6:38 PM CST
Astronomical Twilight 6:18 AM CST 7:10 PM CST
Moon 3:53 PM CST (1/13) 5:41 AM CST (1/13)
Length of Visible Light 10h 43m
Length of Day
9h 45m
Waxing Gibbous, 95% of the Moon is Illuminated
Jan 13
Waxing Gibbous
Jan 15
Full
Jan 23
Last Quarter
Jan 30
New
Feb 6
First Quarter

Hourly Weather History & Observations

Time (CST) Temp. Windchill Dew Point Humidity Pressure Visibility Wind Dir Wind Speed Gust Speed Precip Events Conditions
12:15 AM 39.2 °F 31.6 °F 19.4 °F 45% 29.78 in 10.0 mi NW 12.7 mph - N/A   Clear
12:35 AM 39.2 °F 31.6 °F 19.4 °F 45% 29.79 in 10.0 mi NW 12.7 mph - N/A   Clear
12:55 AM 37.4 °F 28.9 °F 19.4 °F 48% 29.80 in 10.0 mi NW 13.8 mph - N/A   Clear
1:15 AM 37.4 °F 28.9 °F 19.4 °F 48% 29.81 in 10.0 mi NW 13.8 mph - N/A   Clear
1:35 AM 37.4 °F 28.5 °F 19.4 °F 48% 29.81 in 10.0 mi NW 15.0 mph - N/A   Clear
1:55 AM 37.4 °F 28.2 °F 21.2 °F 52% 29.82 in 10.0 mi NW 16.1 mph - N/A   Clear
2:15 AM 37.4 °F 28.5 °F 21.2 °F 52% 29.83 in 10.0 mi NW 15.0 mph 21.9 mph N/A   Clear
2:35 AM 35.6 °F 26.6 °F 21.2 °F 56% 29.85 in 10.0 mi NW 13.8 mph - N/A   Clear
2:55 AM 35.6 °F 27.5 °F 21.2 °F 56% 29.86 in 10.0 mi NW 11.5 mph - N/A   Clear
3:15 AM 35.6 °F 27.1 °F 21.2 °F 56% 29.87 in 10.0 mi NW 12.7 mph - N/A   Clear
3:35 AM 33.8 °F 25.3 °F 21.2 °F 60% 29.88 in 10.0 mi NW 11.5 mph - N/A   Clear
3:55 AM 33.8 °F 25.8 °F 21.2 °F 60% 29.89 in 10.0 mi NW 10.4 mph - N/A   Clear
4:15 AM 33.8 °F 25.3 °F 21.2 °F 60% 29.89 in 10.0 mi NW 11.5 mph - N/A   Clear
4:35 AM 33.8 °F 24.3 °F 21.2 °F 60% 29.90 in 10.0 mi NW 13.8 mph - N/A   Clear
4:55 AM 33.8 °F 24.8 °F 21.2 °F 60% 29.90 in 10.0 mi NW 12.7 mph - N/A   Clear
5:15 AM 33.8 °F 24.8 °F 21.2 °F 60% 29.91 in 10.0 mi NW 12.7 mph - N/A   Clear
5:35 AM 33.8 °F 24.3 °F 19.4 °F 56% 29.91 in 10.0 mi NW 13.8 mph 18.4 mph N/A   Clear
5:55 AM 33.8 °F 24.3 °F 19.4 °F 56% 29.92 in 10.0 mi NW 13.8 mph - N/A   Clear
6:15 AM 32.0 °F 22.5 °F 21.2 °F 64% 29.93 in 10.0 mi NW 12.7 mph - N/A   Clear
6:35 AM 32.0 °F 23.6 °F 21.2 °F 64% 29.93 in 10.0 mi WNW 10.4 mph - N/A   Clear
6:55 AM 30.2 °F 21.3 °F 21.2 °F 69% 29.94 in 10.0 mi WNW 10.4 mph - N/A   Clear
7:15 AM 30.2 °F 21.9 °F 19.4 °F 64% 29.94 in 10.0 mi WNW 9.2 mph - N/A   Clear
7:35 AM 30.2 °F 22.6 °F 19.4 °F 64% 29.94 in 10.0 mi WNW 8.1 mph - N/A   Clear
7:55 AM 28.4 °F 19.1 °F 19.4 °F 69% 29.95 in 10.0 mi WNW 10.4 mph - N/A   Clear
8:15 AM 28.4 °F 19.1 °F 19.4 °F 69% 29.95 in 10.0 mi WNW 10.4 mph - N/A   Clear
8:35 AM 30.2 °F 20.2 °F 21.2 °F 69% 29.96 in 10.0 mi WNW 12.7 mph - N/A   Clear
8:55 AM 32.0 °F 22.5 °F 21.2 °F 64% 29.96 in 10.0 mi WNW 12.7 mph - N/A   Clear
9:15 AM 33.8 °F 24.3 °F 19.4 °F 56% 29.97 in 10.0 mi NW 13.8 mph - N/A   Clear
9:35 AM 35.6 °F 26.6 °F 21.2 °F 56% 29.98 in 10.0 mi NW 13.8 mph 18.4 mph N/A   Clear
9:55 AM 37.4 °F 29.3 °F 21.2 °F 52% 29.98 in 10.0 mi NW 12.7 mph - N/A   Clear
10:15 AM 37.4 °F 29.8 °F 21.2 °F 52% 29.98 in 10.0 mi NW 11.5 mph - N/A   Clear
10:35 AM 39.2 °F 32.5 °F 21.2 °F 49% 29.99 in 10.0 mi WNW 10.4 mph - N/A   Clear
10:55 AM 42.8 °F 36.2 °F 21.2 °F 42% 29.99 in 10.0 mi WNW 12.7 mph - N/A   Clear
11:15 AM 42.8 °F 36.2 °F 21.2 °F 42% 29.98 in 10.0 mi WNW 12.7 mph - N/A   Clear
11:35 AM 44.6 °F 38.4 °F 23.0 °F 43% 29.98 in 10.0 mi West 12.7 mph - N/A   Clear
11:55 AM 44.6 °F 38.8 °F 24.8 °F 46% 29.97 in 10.0 mi West 11.5 mph - N/A   Clear
12:15 PM 46.4 °F 41.9 °F 23.0 °F 40% 29.95 in 10.0 mi West 9.2 mph - N/A   Clear
12:35 PM 46.4 °F 41.5 °F 23.0 °F 40% 29.94 in 10.0 mi West 10.4 mph - N/A   Clear
12:55 PM 48.2 °F - 23.0 °F 37% 29.92 in 10.0 mi West 12.7 mph - N/A   Clear
1:15 PM 50.0 °F - 23.0 °F 35% 29.91 in 10.0 mi WSW 13.8 mph - N/A   Clear
1:35 PM 51.8 °F - 24.8 °F 35% 29.90 in 10.0 mi WSW 17.3 mph 20.7 mph N/A   Clear
1:55 PM 51.8 °F - 21.2 °F 30% 29.89 in 10.0 mi West 15.0 mph 23.0 mph N/A   Clear
2:15 PM 53.6 °F - 21.2 °F 28% 29.88 in 10.0 mi WNW 20.7 mph 26.5 mph N/A   Clear
2:35 PM 53.6 °F - 19.4 °F 26% 29.87 in 10.0 mi WNW 17.3 mph 27.6 mph N/A   Clear
2:55 PM 53.6 °F - 19.4 °F 26% 29.86 in 10.0 mi West 19.6 mph 27.6 mph N/A   Clear
3:15 PM 53.6 °F - 19.4 °F 26% 29.87 in 10.0 mi West 16.1 mph 26.5 mph N/A   Clear
3:35 PM 53.6 °F - 19.4 °F 26% 29.87 in 10.0 mi West 19.6 mph 23.0 mph N/A   Clear
3:55 PM 53.6 °F - 19.4 °F 26% 29.86 in 10.0 mi West 16.1 mph 21.9 mph N/A   Clear
4:15 PM 53.6 °F - 19.4 °F 26% 29.86 in 10.0 mi West 15.0 mph 21.9 mph N/A   Clear
4:35 PM 53.6 °F - 19.4 °F 26% 29.87 in 10.0 mi West 12.7 mph - N/A   Clear
4:55 PM 51.8 °F - 21.2 °F 30% 29.87 in 10.0 mi West 12.7 mph - N/A   Clear
5:15 PM 48.2 °F - 21.2 °F 34% 29.86 in 10.0 mi West 10.4 mph - N/A   Clear
5:35 PM 44.6 °F 39.7 °F 21.2 °F 39% 29.86 in 10.0 mi WSW 9.2 mph - N/A   Clear
5:55 PM 42.8 °F 37.0 °F 21.2 °F 42% 29.86 in 10.0 mi WSW 10.4 mph - N/A   Clear
6:15 PM 39.2 °F 33.0 °F 21.2 °F 49% 29.86 in 10.0 mi SW 9.2 mph - N/A   Clear
6:35 PM 39.2 °F 32.5 °F 21.2 °F 49% 29.86 in 10.0 mi SW 10.4 mph - N/A   Clear
6:55 PM 39.2 °F 32.5 °F 21.2 °F 49% 29.86 in 10.0 mi SW 10.4 mph - N/A   Clear
7:15 PM 37.4 °F 30.8 °F 21.2 °F 52% 29.85 in 10.0 mi WSW 9.2 mph - N/A   Clear
7:35 PM 37.4 °F 30.3 °F 21.2 °F 52% 29.86 in 10.0 mi SW 10.4 mph - N/A   Clear
7:55 PM 35.6 °F 28.0 °F 21.2 °F 56% 29.86 in 10.0 mi WSW 10.4 mph - N/A   Clear
8:15 PM 35.6 °F 28.0 °F 21.2 °F 56% 29.86 in 10.0 mi SW 10.4 mph - N/A   Clear
8:35 PM 35.6 °F 28.0 °F 21.2 °F 56% 29.86 in 10.0 mi WSW 10.4 mph - N/A   Clear
8:55 PM 35.6 °F 29.2 °F 21.2 °F 56% 29.86 in 10.0 mi WSW 8.1 mph - N/A   Clear
9:15 PM 35.6 °F 28.6 °F 21.2 °F 56% 29.86 in 10.0 mi WSW 9.2 mph - N/A   Clear
9:35 PM 35.6 °F 29.9 °F 21.2 °F 56% 29.86 in 10.0 mi SW 6.9 mph - N/A   Clear
9:55 PM 35.6 °F 28.0 °F 21.2 °F 56% 29.85 in 10.0 mi SW 10.4 mph - N/A   Clear
10:15 PM 35.6 °F 28.0 °F 21.2 °F 56% 29.85 in 10.0 mi WSW 10.4 mph - N/A   Clear
10:35 PM 35.6 °F 27.5 °F 23.0 °F 60% 29.86 in 10.0 mi WSW 11.5 mph - N/A   Clear
10:55 PM 37.4 °F 29.3 °F 21.2 °F 52% 29.86 in 10.0 mi West 12.7 mph - N/A   Scattered Clouds
11:15 PM 37.4 °F 29.3 °F 21.2 °F 52% 29.87 in 10.0 mi West 12.7 mph - N/A   Scattered Clouds
11:35 PM 37.4 °F 31.4 °F 21.2 °F 52% 29.86 in 10.0 mi West 8.1 mph - N/A   Scattered Clouds
11:55 PM 37.4 °F 30.8 °F 21.2 °F 52% 29.86 in 10.0 mi West 9.2 mph - N/A   Scattered Clouds